SCP
0 0 0 0 -0 -0 -0 0 0 0 0 0 0 0 0 0 0 0 0 0 0 0 0 0 0 0 0 0 0 0 0 0 0 0 0 0 0 0 0 0 0 0 0 0 0 0 0 0 0
0 0 0 0 -0 -0 -0 0 0 0 0 0 0 0 0 0 0 0 0 0 0 0 0 0 0 0 0 0 0 0 0 0 0 0 0 0 0 0 0 0 0 0 0 0 0 0 0 0 0
0 0 0 0 -0 -0 0 0 0 0 0 0 0 0 0 0 0 0 0 0 0 0 0 0 0 0 0 0 0 0 0 0 0 0 0 0 0 0 0 0 0 0 0 0 0 0 0 0 0
0 0 0 0 0 0 0 0 0 0 0 0 0 0 0 0 0 0 0 0 0 0 0 0 0 0 0 0 0 0 0 0 0 0 0 0 0 0 0 0 0 0 0 0 0 0 0 0 0
0 0 0 0 0 0 0 0 0 0 0 0 0 0 0 0 0 0 0 0 0 0 0 0 0 0 0 0 0 0 0 0 0 0 0 0 0 0 0 0 0 0 0 0 0 0 0 0 0
0 0 0 0 0 0 0 0 0 0 0 0 0 0 0 0 0 0 0 0 0 0 0 0 0 0 0 0 0 0 0 0 0 0 0 0 0 0 0 0 0 0 0 0 0 0 0 0 0
0 0 0 0 0 0 0 0 0 0 0 0 0 0 0 0 0 0 0 0 0 0 0 0 0 0 0 0 0 0 0 0 0 0 0 0 0 0 0 0 0 0 0 0 0 0 0 0 0
0 0 0 0 0 0 0 0 0 0 0 0 0 0 0 0 0 0 0 0 0 0 0 0 0 0 0 0 0 0 0 0 0 0 0 0 0 0 0 0 0 0 0 0 0 0 0 0 0
0 0 0 0 0 0 0 0 0 0 0 0 0 0 0 0 0 0 0 0 0 0 0 0 0 0 0 0 0 0 0 0 0 0 0 0 0 0 0 0 0 0 0 0 0 0 0 0 0
0 0 0 0 0 0 0 0 0 0 0 0 0 0 0 0 0 0 0 0 0 0 0 0 0 0 0 0 0 0 0 0 0 0 0 0 0 0 0 0 0 0 0 0 0 0 0 0 0
0 0 0 0 0 0 0 0 0 0 0 0 0 0 0 0 0 0 0 0 0 0 0 0 0 0 0 0 0 0 0 0 0 0 0 0 0 0 0 0 0 0 0 0 0 0 0 0 0
0 0 0 0 0 0 0 0 0 0 0 0 0 0 0 0 0 0 0 0 0 0 0 0 0 0 0 0 0 0 0 0 0 0 0 0 0 0 0 0 0 0 0 0 0 0 0 0 0
0 0 0 0 0 0 0 0 0 0 0 0 0 0 0 0 0 0 0 0 0 0 0 0 0 0 0 0 0 0 0 0 0 0 0 0 0 0 0 0 0 0 0 0 0 0 0 0 0
0 0 0 0 0 0 0 0 0 0 0 0 0 0 0 0 0 0 0 0 0 0 0 0 0 0 0 0 0 0 0 0 0 0 0 0 0 0 0 0 0 0 0 0 0 0 0 0 0
0 0 0 0 0 0 0 0 0 0 0 0 0 0 0 0 0 0 0 0 0 0 0 0 0 0 0 0 0 0 0 0 0 0 0 0 0 0 0 0 0 0 0 0 0 0 0 0 0
0 0 0 0 0 0 0 0 0 0 0 0 0 0 0 0 0 0 0 0 0 0 0 0 0 0 0 0 0 0 0 0 0 0 0 0 0 0 0 0 0 0 0 0 0 0 0 0 0
0 0 0 0 0 0 0 0 0 0 0 0 0 0 0 0 0 0 0 0 0 0 0 0 0 0 0 0 0 0 0 0 0 0 0 0 0 0 0 0 0 0 0 0 0 0 0 0 0
0 0 0 0 0 0 0 0 0 0 0 0 0 0 0 0 0 0 0 0 0 0 0 0 0 0 0 0 0 0 0 0 0 0 0 0 0 0 0 0 0 0 0 0 0 0 0 0 0
0 0 0 0 0 0 0 0 0 0 0 0 0 0 0 0 0 0 0 0 0 0 0 0 0 0 0 0 0 0 0 0 0 0 0 0 0 0 0 0 0 0 0 0 0 0 0 0 0
0 0 0 0 0 0 0 0 0 0 0 0 0 0 0 0 0 0 0 0 0 0 0 0 0 0 0 0 0 0 0 0 0 0 0 0 0 0 0 0 0 0 0 0 0 0 0 0 0
0 0 0 0 0 0 0 0 0 0 0 0 0 0 0 0 0 0 0 0 0 0 0 0 0 0 0 0 0 0 0 0 0 0 0 0 0 0 0 0 0 0 0 0 0 0 0 0 0
0 0 0 0 0 0 0 0 0 0 0 0 0 0 0 0 0 0 0 0 0 0 0 0 0 0 0 0 0 0 0 0 0 0 0 0 0 0 0 0 0 0 0 0 0 0 0 0 0
0 0 0 0 0 0 0 0 0 0 0 0 0 0 0 0 0 0 0 0 0 0 0 0 0 0 0 0 0 0 0 0 0 0 0 0 0 0 0 0 0 0 0 0 0 0 0 0 0
0 0 0 0 0 0 0 0 0 0 0 0 0 0 0 0 0 0 0 0 0 0 0 0 0 0 0 0 0 0 0 0 0 0 0 0 0 0 0 0 0 0 0 0 0 0 0 0 0
0 0 0 0 0 0 0 0 0 0 0 0 0 0 0 0 0 0 0 0 0 0 0 0 0 0 0 0 0 0 0 0 0 0 0 0 0 0 0 0 0 0 0 0 0 0 0 0 0
0 0 0 0 0 0 0 0 0 0 0 0 0 0 0 0 0 0 0 0 0 0 0 0 0 0 0 0 0 0 0 0 0 0 0 0 0 0 0 0 0 0 0 0 0 0 0 0 0
0 0 0 0 0 0 0 0 0 0 0 0 0 0 0 0 0 0 0 0 0 0 0 0 0 0 0 0 0 0 0 0 0 0 0 0 0 0 0 0 0 0 0 0 0 0 0 0 0
0 0 0 0 0 0 0 0 0 0 0 0 0 0 0 0 0 0 0 0 0 0 0 0 0 0 0 0 0 0 0 0 0 0 0 0 0 0 0 0 0 0 0 0 0 0 0 0 0
0 0 0 0 0 0 0 0 0 0 0 0 0 0 0 0 0 0 0 0 0 0 0 0 0 0 0 0 0 0 0 0 0 0 0 0 0 0 0 0 0 0 0 0 0 0 0 0 0
0 0 0 0 0 0 0 0 0 0 0 0 0 0 0 0 0 0 0 0 0 0 0 0 0 0 0 0 0 0 0 0 0 0 0 0 0 0 0 0 0 0 0 0 0 0 0 0 0
Wind_Speed
3 3 3 5 7 6 1 2 4 3 3 1 2 2 5 7 6 4 2 4 5 4 3 4 8 9 9 9 9 10 11 12 13 13 14 15 16 17 18 18 19 20 21 21 22 23 23 24 24
1 2 5 6 6 2 3 3 5 4 5 5 3 2 3 2 1 5 4 5 5 5 4 1 8 9 9 9 9 10 10 11 12 13 14 15 15 16 17 17 18 19 19 20 21 22 22 23 23
2 5 6 6 4 3 3 3 4 3 5 3 3 1 2 4 5 7 5 7 5 5 3 2 10 9 8 8 8 9 10 11 11 12 13 14 14 15 16 16 17 18 19 19 20 21 21 22 23
3 6 6 6 1 2 2 2 5 7 3 2 4 2 2 1 6 6 6 7 7 5 3 2 10 9 8 8 8 8 9 10 11 12 13 13 14 14 15 15 16 17 18 18 19 20 21 21 22
5 5 6 3 2 2 2 3 8 7 6 4 5 4 3 1 4 7 8 7 7 5 2 1 9 9 8 8 7 8 8 9 10 11 12 12 13 14 14 15 15 16 17 17 18 19 20 21 22
6 5 4 2 3 2 2 4 6 5 4 4 6 4 4 2 7 9 8 7 6 6 4 4 7 8 7 7 7 7 8 9 10 11 12 12 13 13 14 14 15 15 16 17 18 19 19 20 21
5 4 3 3 2 3 4 6 5 6 5 7 8 5 3 4 7 8 7 6 5 6 6 4 5 5 6 6 7 7 8 9 9 10 11 12 12 13 13 13 14 15 15 16 17 18 19 20 20
5 7 3 2 4 6 5 6 4 8 6 3 8 7 6 7 8 7 6 5 5 4 5 5 4 4 4 3 6 7 8 8 8 9 10 11 11 12 12 12 13 14 15 16 17 17 18 19 19
4 5 3 6 8 6 5 5 3 3 5 3 4 4 1 12 12 9 5 4 4 5 4 5 5 4 4 3 5 6 7 7 8 7 10 9 4 4 6 10 13 13 14 15 16 16 16 16 16
4 3 6 4 6 4 6 7 7 4 3 5 5 3 5 13 15 14 11 11 9 8 6 5 5 5 4 4 4 3 3 4 4 4 4 3 3 3 5 10 12 13 13 14 14 15 13 10 5
2 3 2 0 1 2 6 5 6 7 10 12 11 9 10 14 16 16 14 12 11 9 7 7 6 6 5 4 4 2 2 3 3 4 4 3 3 2 3 3 4 5 7 5 7 7 4 4 4
2 0 1 2 0 3 5 5 5 10 12 6 9 11 13 19 21 21 18 14 10 8 9 8 7 6 6 5 4 4 3 3 3 4 5 3 2 2 1 1 1 2 2 2 2 2 3 4 4
1 1 1 1 0 2 3 4 5 10 10 2 6 12 16 20 20 17 13 11 10 11 11 10 9 8 7 5 4 4 4 4 4 4 4 4 3 2 1 1 0 1 1 1 2 2 3 4 4
1 0 2 1 0 1 3 4 4 12 5 6 8 12 16 19 20 14 13 15 15 14 13 10 10 9 8 6 5 5 4 4 4 4 5 5 4 3 2 1 1 1 1 1 2 3 3 3 4
1 2 4 3 2 1 0 8 12 9 5 7 10 11 13 15 15 19 19 18 16 13 13 12 12 10 9 8 7 5 5 5 4 4 5 5 5 4 3 2 2 2 2 2 2 3 3 4 4
2 3 4 4 4 1 2 13 11 5 8 11 10 10 12 14 15 16 15 14 13 12 13 13 12 11 10 8 7 5 5 5 5 4 5 6 6 5 4 3 3 3 2 2 3 3 3 3 4
3 3 4 6 4 3 5 14 9 3 7 11 11 11 12 12 13 15 14 15 14 15 15 14 12 13 12 9 6 6 5 5 5 5 5 5 6 6 4 4 3 3 2 2 3 2 2 3 5
4 4 5 7 4 5 7 17 18 7 9 13 11 11 12 15 20 15 14 13 13 14 14 15 13 12 10 6 4 3 4 4 4 5 6 7 6 6 5 4 4 4 3 3 3 4 3 4 4
2 4 8 9 4 6 12 21 25 13 10 15 15 13 15 19 14 9 12 12 12 14 15 16 15 13 10 6 5 5 5 5 5 6 7 8 7 7 6 4 4 4 4 4 4 3 4 3 2
3 5 8 8 2 5 9 18 20 13 12 15 16 16 17 14 9 10 12 14 17 18 18 17 17 16 15 10 6 4 4 4 4 5 7 8 8 7 7 6 5 5 4 5 4 3 2 3 2
4 6 6 6 5 3 7 14 10 7 4 6 9 10 11 15 15 12 14 16 17 19 21 19 19 18 16 12 6 3 2 2 3 5 6 8 8 8 7 7 6 6 5 5 5 5 5 4 3
7 6 5 4 4 6 3 11 14 6 8 8 10 10 13 13 13 12 14 15 20 21 18 18 18 18 16 15 12 11 10 9 10 6 6 7 8 8 8 7 7 7 6 6 6 6 5 5 4
6 1 1 2 2 5 3 5 15 6 8 9 8 10 12 12 13 14 16 18 18 16 15 17 16 17 17 17 17 15 12 9 5 5 7 8 7 8 9 8 7 7 6 7 7 6 6 5 5
1 2 3 4 3 4 4 5 13 7 8 7 6 5 8 8 10 12 11 10 12 12 14 15 17 18 17 18 18 18 16 12 9 9 9 8 6 7 9 9 8 8 7 7 8 7 7 7 7
2 3 5 6 3 6 2 4 16 12 8 7 10 10 7 6 7 9 10 12 13 14 17 16 18 20 19 19 19 19 18 16 16 13 12 10 7 7 10 9 8 7 8 8 7 7 8 8 8
2 4 4 4 5 7 4 9 15 10 8 8 9 10 9 8 7 9 11 11 12 14 16 17 20 21 19 20 20 18 16 13 12 13 10 11 9 9 9 10 9 9 9 8 7 7 8 7 9
3 3 3 3 3 5 9 10 16 7 6 6 7 8 10 10 8 9 9 9 11 13 16 19 20 20 20 21 19 17 17 15 14 12 11 9 8 8 9 10 10 9 9 9 8 7 8 8 9
2 5 4 2 3 7 9 8 8 10 9 8 8 9 10 9 9 9 8 9 9 11 11 13 17 20 19 18 18 16 17 17 14 12 13 12 11 10 9 10 10 9 9 9 8 8 8 9 9
4 3 3 2 3 4 7 11 9 9 9 9 11 10 10 10 10 9 8 7 7 8 9 13 15 16 16 18 18 17 16 16 14 14 14 13 11 11 11 11 10 10 10 9 9 9 9 10 10
6 6 7 4 6 5 5 14 10 9 9 8 11 11 10 10 10 10 9 7 7 8 10 12 14 16 17 16 16 17 15 14 15 16 14 13 12 12 12 11 11 11 10 10 10 11 10 10 11
Wind_Direction
65 67 65 56 55 53 119 201 164 155 165 112 96 117 156 164 171 186 137 167 147 129 80 81 110 100 89 78 70 62 56 51 47 43 41 39 37 35 33 30 29 27 27 26 24 24 23 22 21
91 61 54 58 81 57 267 198 183 192 155 132 101 105 120 167 133 126 157 182 152 126 91 70 121 108 97 85 75 67 61 55 50 46 43 40 38 36 33 30 29 27 26 25 24 24 23 21 19
85 52 75 71 96 178 234 193 173 108 134 137 116 81 191 189 173 176 189 169 141 116 93 159 126 116 103 91 81 72 65 60 54 50 46 42 40 37 33 30 30 28 26 25 24 23 22 20 18
76 47 53 70 124 218 252 196 148 130 154 144 146 175 238 192 178 184 156 152 133 116 78 178 131 122 111 100 89 79 70 64 59 55 49 43 41 39 33 31 30 28 26 24 23 22 21 19 17
59 73 60 49 262 261 248 183 153 159 182 177 168 187 227 199 150 144 148 152 141 128 79 104 132 126 118 108 97 87 77 70 63 59 53 46 42 40 34 31 31 28 26 24 22 21 20 18 16
59 67 83 260 260 275 229 168 157 171 170 171 176 189 227 158 152 158 157 158 150 133 93 59 129 126 120 113 104 93 84 77 69 64 58 49 44 40 35 31 31 29 27 24 23 21 20 18 15
102 101 160 207 231 264 212 166 177 174 189 203 179 181 228 190 186 159 153 150 146 133 115 89 73 83 105 113 111 100 91 83 75 70 64 54 46 41 36 29 31 29 27 25 23 22 20 18 14
114 102 106 191 214 248 196 169 193 171 202 169 161 181 225 196 162 137 134 140 146 140 132 124 111 102 85 71 113 107 99 91 82 78 73 64 54 43 35 28 29 29 28 25 24 22 20 19 12
90 83 206 217 204 236 171 173 180 149 134 180 214 217 193 139 136 135 141 160 172 168 163 150 141 134 129 118 101 95 97 97 86 75 83 81 65 52 29 26 32 30 29 25 24 22 20 19 10
80 154 231 213 196 208 179 188 175 148 183 224 240 203 120 142 160 171 178 183 186 187 186 176 164 157 150 132 108 101 97 99 105 103 99 98 82 63 56 34 35 32 31 25 23 21 19 14 357
71 195 244 306 240 180 172 194 177 172 224 216 208 186 154 165 178 187 191 188 190 185 183 180 177 167 157 144 142 132 126 126 129 134 134 123 101 70 60 45 32 24 29 21 13 10 358 342 331
93 8 320 311 254 169 184 179 195 212 226 211 198 162 167 178 189 195 195 191 184 181 191 183 178 172 170 160 155 155 154 155 160 161 154 142 130 110 88 65 35 24 12 1 354 340 329 322 313
104 294 340 337 100 179 169 200 232 243 236 204 150 159 180 189 197 201 197 189 186 191 192 186 181 180 174 167 172 165 171 173 172 169 167 160 150 149 140 122 55 354 342 335 321 314 309 307 301
135 309 300 304 155 177 203 248 242 256 212 184 177 187 194 197 198 194 194 195 196 197 193 186 186 185 176 176 178 174 176 174 172 177 179 172 164 165 167 178 210 256 265 271 278 282 285 287 285
119 344 311 241 207 217 251 281 234 238 157 202 210 207 205 208 201 202 201 200 198 196 190 188 190 185 183 184 184 178 178 173 178 184 185 182 177 177 179 189 216 235 247 270 278 281 275 285 292
41 12 315 272 193 170 173 267 263 207 188 223 222 217 217 217 212 211 205 202 196 190 190 192 191 187 189 187 184 177 178 179 185 184 186 190 188 184 183 195 219 227 234 250 266 258 278 282 286
21 324 286 295 199 172 207 257 271 168 201 235 232 222 222 225 224 217 207 202 196 194 192 192 192 188 190 187 182 180 178 186 188 185 189 195 194 189 187 201 217 220 226 240 264 264 254 274 285
273 269 270 269 237 188 232 256 266 219 212 237 239 229 225 228 229 216 206 201 196 196 195 195 194 190 182 173 166 174 191 199 194 194 197 196 196 194 191 203 216 212 220 236 244 262 259 256 271
239 247 266 265 232 201 245 261 270 259 224 238 239 231 230 234 234 205 197 195 193 195 197 197 195 190 177 169 174 181 203 201 201 204 201 198 197 196 195 205 208 209 215 228 236 249 270 268 264
230 266 275 285 233 217 277 276 272 261 235 233 234 231 231 235 228 207 197 196 199 200 201 200 200 193 191 190 176 174 172 187 197 198 200 200 198 198 202 201 207 210 216 230 232 224 249 261 266
244 232 253 276 318 282 310 295 286 288 254 252 237 233 229 227 228 214 203 203 203 205 204 203 202 198 196 186 161 144 134 145 180 201 205 204 200 202 205 203 205 210 208 221 227 220 222 246 253
265 248 238 279 323 300 357 302 293 287 295 264 245 232 233 230 226 217 208 207 209 211 204 205 201 200 195 186 187 185 191 199 201 193 195 197 200 203 206 207 207 211 211 219 228 224 215 222 248
232 309 276 292 250 300 279 246 284 317 294 281 260 237 234 228 222 222 216 215 214 208 203 204 202 202 196 195 198 199 207 207 182 180 190 200 205 208 209 209 208 213 215 219 224 229 224 218 231
140 45 52 54 69 293 243 202 282 267 249 286 299 274 248 236 227 231 226 215 213 202 201 200 202 206 200 199 202 204 208 200 188 194 199 203 206 210 213 213 211 214 216 220 224 227 229 230 233
85 58 351 340 346 264 211 221 256 258 249 254 280 294 295 263 235 232 224 215 213 203 202 201 203 208 203 202 205 208 209 203 203 201 203 201 203 208 213 211 210 213 218 222 223 226 231 231 233
180 146 172 262 273 292 288 243 259 268 275 263 264 276 287 273 248 237 230 221 216 209 203 201 205 210 204 205 209 209 208 206 210 207 201 203 206 209 204 206 211 215 218 224 222 228 234 233 236
159 197 172 164 283 283 279 286 296 297 302 291 282 283 279 276 266 252 244 228 220 212 207 204 207 210 207 207 208 208 207 208 209 205 204 205 207 206 205 207 213 218 220 223 223 232 236 236 240
159 153 106 138 277 286 290 277 263 297 308 320 318 303 290 288 281 269 255 241 229 221 214 206 209 212 210 207 207 209 209 210 208 202 205 206 206 205 203 208 214 219 222 224 225 233 238 239 244
143 160 161 169 195 223 280 271 239 247 273 295 298 295 289 288 282 275 266 250 236 222 210 209 212 213 211 209 208 210 208 207 205 207 209 207 205 204 208 211 214 219 224 224 226 234 236 241 248
182 194 162 186 241 209 241 270 262 257 270 274 282 290 289 282 278 274 270 262 244 229 219 216 214 215 215 209 207 211 208 203 206 211 209 204 205 206 209 210 215 221 225 224 226 236 240 240 247